When you browse on this site, cookies collect data to enhance your experience and personalize the content and advertising you see.
Visit our Privacy Policy to learn more. By continuing to use the site, you agree to this use of cookies and data.
  • En España
  • Lista de países
  • Para 7 días
  • Temperatura del agua
  • El tiempo en el mapa
  • Informadores
  • user-avatar
    Iniciar sesión

    Tiempo cada hora Dubno

    Hoy, 28 Marzo, Sábado

    Tiempo Temperatura Precipitaciones Viento Presión Humedad
    00:00 +6°C° 0 mm 2 mps 749 mmHg 62%
    01:00 +6°C° 0 mm 2 mps 748 mmHg 63%
    02:00 +5°C° 0 mm 2 mps 748 mmHg 64%
    03:00 +5°C° 0 mm 2 mps 747 mmHg 64%
    04:00 +6°C° 0 mm 2 mps 747 mmHg 64%
    05:00 +6°C° 0 mm 2 mps 746 mmHg 64%
    06:00 +6°C° 0 mm 2 mps 746 mmHg 65%
    07:00 +6°C° 0 mm 2 mps 746 mmHg 65%
    08:00 +7°C° 0 mm 2 mps 746 mmHg 64%
    09:00 +8°C° 0 mm 2 mps 746 mmHg 59%
    10:00 +10°C° 0 mm 2 mps 745 mmHg 54%
    11:00 +12°C° 0 mm 3 mps 745 mmHg 49%
    12:00 +13°C° 0 mm 2 mps 744 mmHg 45%
    13:00 +14°C° 0 mm 2 mps 744 mmHg 42%
    14:00 +15°C° 0 mm 2 mps 743 mmHg 38%
    15:00 +15°C° 0 mm 2 mps 743 mmHg 39%
    16:00 +15°C° 0 mm 2 mps 742 mmHg 40%
    17:00 +15°C° 0 mm 2 mps 742 mmHg 42%
    18:00 +13°C° 0 mm 1 mps 742 mmHg 47%
    19:00 +12°C° 0 mm 1 mps 741 mmHg 51%
    20:00 +11°C° 0 mm 1 mps 741 mmHg 56%
    21:00 +11°C° 0 mm 1 mps 741 mmHg 58%
    22:00 +10°C° 0 mm 1 mps 741 mmHg 60%
    23:00 +10°C° 0 mm 1 mps 741 mmHg 62%

    Mañana, 29 Marzo, Domingo

    Tiempo Temperatura Precipitaciones Viento Presión Humedad
    00:00 +10°C° 0 mm 1 mps 740 mmHg 63%
    01:00 +9°C° 0 mm 1 mps 740 mmHg 64%
    02:00 +9°C° 0 mm 1 mps 740 mmHg 65%
    03:00 +9°C° 0 mm 1 mps 740 mmHg 67%
    04:00 +8°C° 0 mm 1 mps 739 mmHg 68%
    05:00 +7°C° 0 mm 2 mps 739 mmHg 70%
    06:00 +7°C° 0 mm 2 mps 739 mmHg 70%
    07:00 +8°C° 0 mm 2 mps 739 mmHg 69%
    08:00 +8°C° 0 mm 2 mps 739 mmHg 69%
    09:00 +9°C° 0 mm 2 mps 739 mmHg 64%
    10:00 +11°C° 0 mm 3 mps 739 mmHg 60%
    11:00 +12°C° 0 mm 3 mps 739 mmHg 56%
    12:00 +13°C° 0.1 mm 3 mps 738 mmHg 53%
    13:00 +13°C° 0.1 mm 3 mps 738 mmHg 50%
    14:00 +14°C° 0.1 mm 4 mps 738 mmHg 47%
    15:00 +13°C° 0.2 mm 4 mps 738 mmHg 48%
    16:00 +13°C° 0.2 mm 4 mps 737 mmHg 49%
    17:00 +13°C° 0.2 mm 4 mps 737 mmHg 50%
    18:00 +12°C° 0.1 mm 4 mps 737 mmHg 54%
    19:00 +10°C° 0.1 mm 3 mps 738 mmHg 59%
    20:00 +9°C° 0.1 mm 3 mps 738 mmHg 64%
    21:00 +8°C° 0 mm 3 mps 738 mmHg 69%
    22:00 +8°C° 0 mm 3 mps 738 mmHg 74%
    23:00 +6°C° 0 mm 4 mps 738 mmHg 79%

    Pasado mañana, 30 Marzo, Lunes

    Tiempo Temperatura Precipitaciones Viento Presión Humedad
    00:00 +5°C° 0 mm 4 mps 739 mmHg 82%
    01:00 +4°C° 0 mm 4 mps 739 mmHg 85%
    02:00 +4°C° 0 mm 4 mps 739 mmHg 88%
    03:00 +3°C° 0 mm 4 mps 739 mmHg 88%
    04:00 +1°C° 0 mm 4 mps 739 mmHg 89%
    05:00 +1°C° 0 mm 5 mps 739 mmHg 90%
    06:00 +1°C° 0.2 mm 5 mps 740 mmHg 91%
    07:00 0°C° 0.2 mm 4 mps 740 mmHg 93%
    08:00 0°C° 0.2 mm 4 mps 741 mmHg 94%
    09:00 0°C° 0.6 mm 5 mps 741 mmHg 93%
    10:00 -1°C° 0.6 mm 5 mps 742 mmHg 93%
    11:00 -2°C° 0.6 mm 6 mps 742 mmHg 92%
    12:00 -2°C° 0.4 mm 6 mps 743 mmHg 91%
    13:00 -2°C° 0.4 mm 6 mps 743 mmHg 90%
    14:00 -2°C° 0.4 mm 6 mps 744 mmHg 89%
    15:00 -1°C° 0.1 mm 5 mps 744 mmHg 84%
    16:00 -1°C° 0.1 mm 5 mps 744 mmHg 80%
    17:00 -1°C° 0.1 mm 4 mps 744 mmHg 75%
    18:00 -1°C° 0 mm 4 mps 745 mmHg 75%
    19:00 -1°C° 0 mm 3 mps 745 mmHg 75%
    20:00 -1°C° 0 mm 3 mps 746 mmHg 75%
    21:00 -1°C° 0 mm 3 mps 746 mmHg 74%
    22:00 -2°C° 0 mm 3 mps 746 mmHg 73%
    23:00 -4°C° 0 mm 3 mps 746 mmHg 71%

    31 Marzo, Martes

    Tiempo Temperatura Precipitaciones Viento Presión Humedad
    00:00 -4°C° 0 mm 3 mps 746 mmHg 71%
    01:00 -4°C° 0 mm 3 mps 746 mmHg 71%
    02:00 -4°C° 0 mm 3 mps 747 mmHg 70%
    03:00 -4°C° 0 mm 3 mps 747 mmHg 70%
    04:00 -4°C° 0 mm 3 mps 747 mmHg 69%
    05:00 -5°C° 0 mm 3 mps 747 mmHg 68%
    06:00 -4°C° 0 mm 3 mps 747 mmHg 64%
    07:00 -2°C° 0 mm 3 mps 747 mmHg 59%
    08:00 -3°C° 0 mm 4 mps 748 mmHg 55%
    09:00 -2°C° 0 mm 4 mps 748 mmHg 50%
    10:00 -1°C° 0 mm 4 mps 748 mmHg 46%
    11:00 0°C° 0 mm 4 mps 748 mmHg 42%
    12:00 0°C° 0 mm 4 mps 748 mmHg 42%
    13:00 +1°C° 0 mm 4 mps 748 mmHg 42%
    14:00 +1°C° 0 mm 4 mps 748 mmHg 42%
    15:00 +1°C° 0 mm 4 mps 748 mmHg 43%
    16:00 +1°C° 0 mm 4 mps 748 mmHg 45%
    17:00 +1°C° 0 mm 4 mps 748 mmHg 46%
    18:00 +1°C° 0 mm 3 mps 748 mmHg 51%
    19:00 0°C° 0 mm 3 mps 748 mmHg 56%
    20:00 -2°C° 0 mm 2 mps 749 mmHg 62%
    21:00 -2°C° 0 mm 2 mps 749 mmHg 63%
    22:00 -2°C° 0 mm 2 mps 749 mmHg 65%
    23:00 -2°C° 0 mm 2 mps 749 mmHg 67%

    1 Abril, Miércoles

    Tiempo Temperatura Precipitaciones Viento Presión Humedad
    00:00 -2°C° 0 mm 2 mps 749 mmHg 67%
    01:00 -3°C° 0 mm 2 mps 749 mmHg 67%
    02:00 -3°C° 0 mm 2 mps 749 mmHg 67%
    03:00 -3°C° 0 mm 2 mps 749 mmHg 66%
    04:00 -3°C° 0 mm 2 mps 749 mmHg 66%
    05:00 -1°C° 0 mm 1 mps 749 mmHg 65%
    06:00 0°C° 0 mm 1 mps 749 mmHg 60%
    07:00 +1°C° 0 mm 1 mps 749 mmHg 55%
    08:00 -1°C° 0 mm 2 mps 749 mmHg 50%
    09:00 +3°C° 0 mm 1 mps 749 mmHg 45%
    10:00 +4°C° 0 mm 1 mps 748 mmHg 40%
    11:00 +5°C° 0 mm 1 mps 748 mmHg 35%
    12:00 +5°C° 0 mm 1 mps 748 mmHg 34%
    13:00 +6°C° 0 mm 1 mps 747 mmHg 33%
    14:00 +6°C° 0 mm 1 mps 747 mmHg 32%
    15:00 +6°C° 0 mm 1 mps 747 mmHg 32%
    16:00 +5°C° 0 mm 2 mps 746 mmHg 33%
    17:00 +5°C° 0 mm 2 mps 746 mmHg 33%
    18:00 +3°C° 0 mm 2 mps 746 mmHg 38%
    19:00 +3°C° 0 mm 1 mps 746 mmHg 43%
    20:00 +2°C° 0 mm 1 mps 746 mmHg 48%
    21:00 +2°C° 0 mm 1 mps 746 mmHg 48%
    22:00 +2°C° 0 mm 1 mps 746 mmHg 48%
    23:00 +1°C° 0 mm 1 mps 746 mmHg 49%

    2 Abril, Jueves

    Tiempo Temperatura Precipitaciones Viento Presión Humedad
    00:00 +1°C° 0 mm 1 mps 746 mmHg 50%
    01:00 -1°C° 0 mm 2 mps 745 mmHg 51%
    02:00 -1°C° 0 mm 2 mps 745 mmHg 51%
    03:00 -1°C° 0 mm 2 mps 745 mmHg 53%
    04:00 -1°C° 0 mm 2 mps 745 mmHg 55%
    05:00 -2°C° 0 mm 2 mps 744 mmHg 56%
    06:00 -1°C° 0 mm 2 mps 744 mmHg 54%
    07:00 +1°C° 0 mm 2 mps 744 mmHg 52%
    08:00 +1°C° 0 mm 3 mps 744 mmHg 49%
    09:00 +3°C° 0 mm 3 mps 744 mmHg 45%
    10:00 +4°C° 0 mm 3 mps 744 mmHg 41%
    11:00 +5°C° 0 mm 3 mps 744 mmHg 37%
    12:00 +7°C° 0 mm 3 mps 744 mmHg 37%
    13:00 +7°C° 0 mm 3 mps 744 mmHg 37%
    14:00 +8°C° 0 mm 3 mps 744 mmHg 37%
    15:00 +8°C° 0 mm 3 mps 743 mmHg 39%
    16:00 +8°C° 0 mm 3 mps 743 mmHg 41%
    17:00 +8°C° 0 mm 3 mps 743 mmHg 42%
    18:00 +6°C° 0 mm 2 mps 743 mmHg 47%
    19:00 +5°C° 0 mm 2 mps 743 mmHg 52%
    20:00 +5°C° 0 mm 1 mps 743 mmHg 57%
    21:00 +4°C° 0 mm 1 mps 743 mmHg 59%
    22:00 +4°C° 0 mm 1 mps 743 mmHg 61%
    23:00 +3°C° 0 mm 2 mps 744 mmHg 63%
    Mostrar más